TimeMDT,TemperatureF,Dew PointF,Humidity,Sea Level PressureIn,VisibilityMPH,Wind Direction,Wind SpeedMPH,Gust SpeedMPH,PrecipitationIn,Events,Conditions,WindDirDegrees,DateUTC
12:15 AM,59.5,53.2,80,30.32,10.0,SW,3.5,-,N/A,,Clear,230,2013-08-27 06:15:00
12:35 AM,59.7,52.9,78,30.32,10.0,SW,3.5,-,N/A,,Clear,230,2013-08-27 06:35:00
12:55 AM,60.6,52.9,76,30.32,10.0,Calm,Calm,-,N/A,,Clear,0,2013-08-27 06:55:00
1:15 AM,58.5,52.7,81,30.32,10.0,Calm,Calm,-,N/A,,Clear,0,2013-08-27 07:15:00
1:35 AM,57.6,52.9,84,30.32,10.0,Calm,Calm,-,N/A,,Clear,0,2013-08-27 07:35:00
1:55 AM,56.5,52.7,87,30.32,10.0,Calm,Calm,-,N/A,,Clear,0,2013-08-27 07:55:00
2:15 AM,55.9,52.5,88,30.32,10.0,Calm,Calm,-,N/A,,Clear,0,2013-08-27 08:15:00
2:35 AM,54.3,51.6,91,30.32,10.0,Calm,Calm,-,N/A,,Clear,0,2013-08-27 08:35:00
2:55 AM,55.2,51.6,88,30.32,10.0,North,3.5,-,N/A,,Clear,350,2013-08-27 08:55:00
3:15 AM,54.5,51.8,91,30.32,10.0,Calm,Calm,-,N/A,,Clear,0,2013-08-27 09:15:00
3:35 AM,54.1,52.5,94,30.32,10.0,Calm,Calm,-,N/A,,Clear,0,2013-08-27 09:35:00
3:55 AM,55.0,52.0,89,30.32,10.0,Calm,Calm,-,N/A,,Clear,0,2013-08-27 09:55:00
4:15 AM,54.9,50.7,86,30.32,10.0,Calm,Calm,-,N/A,,Clear,0,2013-08-27 10:15:00
4:35 AM,55.2,51.6,88,30.31,10.0,Calm,Calm,-,N/A,,Clear,0,2013-08-27 10:35:00
4:55 AM,54.0,51.3,91,30.32,10.0,Calm,Calm,-,N/A,,Clear,0,2013-08-27 10:55:00
5:15 AM,52.0,50.2,94,30.32,10.0,WNW,3.5,-,N/A,,Clear,290,2013-08-27 11:15:00
5:35 AM,52.7,51.3,95,30.32,10.0,NW,4.6,-,N/A,,Clear,310,2013-08-27 11:35:00
5:55 AM,52.2,50.5,94,30.32,10.0,Calm,Calm,-,N/A,,Clear,0,2013-08-27 11:55:00
6:15 AM,50.4,48.9,95,30.32,10.0,Calm,Calm,-,N/A,,Clear,0,2013-08-27 12:15:00
6:35 AM,50.7,49.8,97,30.33,10.0,Calm,Calm,-,N/A,,Clear,0,2013-08-27 12:35:00
6:55 AM,50.7,50.0,97,30.33,10.0,Calm,Calm,-,N/A,,Clear,0,2013-08-27 12:55:00
7:15 AM,50.4,50.0,99,30.34,7.0,NW,3.5,-,N/A,,Clear,320,2013-08-27 13:15:00
7:35 AM,54.1,53.1,96,30.34,10.0,Calm,Calm,-,N/A,,Clear,0,2013-08-27 13:35:00
7:55 AM,55.8,53.4,92,30.34,10.0,Calm,Calm,-,N/A,,Clear,0,2013-08-27 13:55:00
8:15 AM,57.6,53.8,87,30.34,10.0,NNW,3.5,-,N/A,,Clear,340,2013-08-27 14:15:00
8:35 AM,59.4,54.3,83,30.35,10.0,Calm,Calm,-,N/A,,Clear,0,2013-08-27 14:35:00
8:55 AM,60.8,54.5,80,30.35,10.0,Calm,Calm,-,N/A,,Clear,0,2013-08-27 14:55:00
9:15 AM,62.6,53.4,72,30.35,10.0,Calm,Calm,-,N/A,,Clear,0,2013-08-27 15:15:00
9:35 AM,64.9,54.9,70,30.35,10.0,Calm,Calm,-,N/A,,Clear,0,2013-08-27 15:35:00
9:55 AM,67.5,54.5,63,30.35,10.0,Calm,Calm,-,N/A,,Clear,0,2013-08-27 15:55:00
10:15 AM,71.4,54.3,55,30.35,10.0,SSE,8.1,-,N/A,,Clear,150,2013-08-27 16:15:00
10:35 AM,72.5,52.9,50,30.35,10.0,SE,8.1,-,N/A,,Clear,130,2013-08-27 16:35:00
10:55 AM,73.0,52.9,49,30.34,10.0,SSE,8.1,-,N/A,,Clear,160,2013-08-27 16:55:00
11:15 AM,74.8,52.5,46,30.34,10.0,ESE,5.8,-,N/A,,Clear,120,2013-08-27 17:15:00
11:35 AM,76.1,51.4,42,30.34,10.0,SSE,4.6,-,N/A,,Clear,150,2013-08-27 17:35:00
11:55 AM,76.6,49.1,38,30.32,10.0,SE,4.6,-,N/A,,Clear,140,2013-08-27 17:55:00
12:15 PM,78.1,49.3,36,30.32,10.0,Calm,Calm,-,N/A,,Clear,0,2013-08-27 18:15:00
12:35 PM,78.3,48.0,34,30.31,10.0,South,10.4,18.4,N/A,,Scattered Clouds,170,2013-08-27 18:35:00
12:55 PM,77.9,46.9,33,30.30,10.0,SE,11.5,-,N/A,,Mostly Cloudy,130,2013-08-27 18:55:00
1:15 PM,80.1,46.8,31,30.29,10.0,SE,11.5,17.3,N/A,,Mostly Cloudy,140,2013-08-27 19:15:00
1:35 PM,80.6,46.2,30,30.29,10.0,SE,15.0,21.9,N/A,,Scattered Clouds,140,2013-08-27 19:35:00
1:55 PM,81.5,43.5,26,30.29,10.0,SE,12.7,18.4,N/A,,Scattered Clouds,130,2013-08-27 19:55:00
2:15 PM,81.5,44.8,27,30.28,10.0,SSE,10.4,18.4,N/A,,Scattered Clouds,150,2013-08-27 20:15:00
2:35 PM,80.8,42.4,26,30.28,10.0,SE,10.4,-,N/A,,Clear,130,2013-08-27 20:35:00
2:55 PM,81.5,39.9,23,30.26,10.0,SE,3.5,17.3,N/A,,Clear,130,2013-08-27 20:55:00
3:15 PM,81.7,43.3,26,30.26,10.0,ESE,11.5,17.3,N/A,,Clear,110,2013-08-27 21:15:00
3:35 PM,82.6,42.3,24,30.25,10.0,SE,8.1,17.3,N/A,,Clear,140,2013-08-27 21:35:00
3:55 PM,83.7,43.0,24,30.24,10.0,SE,10.4,17.3,N/A,,Clear,140,2013-08-27 21:55:00
4:15 PM,81.9,43.7,26,30.24,10.0,SSE,8.1,-,N/A,,Scattered Clouds,150,2013-08-27 22:15:00
4:35 PM,82.8,44.4,26,30.24,10.0,ESE,10.4,17.3,N/A,,Scattered Clouds,110,2013-08-27 22:35:00
4:55 PM,81.5,43.0,26,30.23,10.0,ESE,8.1,16.1,N/A,,Clear,110,2013-08-27 22:55:00
5:15 PM,81.5,43.9,26,30.23,10.0,South,8.1,16.1,N/A,,Clear,170,2013-08-27 23:15:00
5:35 PM,80.6,41.2,25,30.23,10.0,SE,10.4,-,N/A,,Clear,130,2013-08-27 23:35:00
5:55 PM,81.3,41.7,25,30.22,10.0,ESE,11.5,-,N/A,,Clear,110,2013-08-27 23:55:00
6:15 PM,81.3,39.7,23,30.22,10.0,ESE,11.5,-,N/A,,Clear,120,2013-08-28 00:15:00
6:35 PM,79.7,38.8,23,30.21,10.0,ESE,9.2,-,N/A,,Clear,110,2013-08-28 00:35:00
6:55 PM,78.4,39.0,24,30.21,10.0,ESE,9.2,-,N/A,,Clear,120,2013-08-28 00:55:00
7:15 PM,76.8,39.4,26,30.21,10.0,SE,8.1,-,N/A,,Clear,130,2013-08-28 01:15:00
7:35 PM,72.1,43.7,36,30.22,10.0,SE,4.6,-,N/A,,Clear,140,2013-08-28 01:35:00
7:55 PM,69.1,44.1,40,30.23,10.0,Calm,Calm,-,N/A,,Clear,0,2013-08-28 01:55:00
8:15 PM,67.8,45.3,44,30.23,10.0,SW,4.6,-,N/A,,Clear,220,2013-08-28 02:15:00
8:35 PM,67.3,45.9,46,30.23,10.0,SW,4.6,-,N/A,,Clear,220,2013-08-28 02:35:00
8:55 PM,65.8,46.6,50,30.24,10.0,SW,4.6,-,N/A,,Clear,220,2013-08-28 02:55:00
9:15 PM,64.0,46.4,53,30.25,10.0,Calm,Calm,-,N/A,,Clear,0,2013-08-28 03:15:00
9:35 PM,64.2,45.9,51,30.26,10.0,Calm,Calm,-,N/A,,Clear,0,2013-08-28 03:35:00
9:55 PM,63.3,46.4,54,30.26,10.0,SSW,3.5,-,N/A,,Clear,200,2013-08-28 03:55:00
10:15 PM,63.0,46.0,54,30.27,10.0,SW,8.1,-,N/A,,Clear,220,2013-08-28 04:15:00
10:35 PM,62.8,46.6,55,30.28,10.0,SSW,5.8,-,N/A,,Clear,210,2013-08-28 04:35:00
10:55 PM,64.0,46.4,53,30.28,10.0,Calm,Calm,-,N/A,,Clear,0,2013-08-28 04:55:00
11:15 PM,61.2,47.5,61,30.28,10.0,Calm,Calm,-,N/A,,Clear,0,2013-08-28 05:15:00
11:35 PM,58.1,48.9,71,30.29,10.0,WNW,4.6,-,N/A,,Clear,300,2013-08-28 05:35:00
11:55 PM,59.0,48.9,69,30.29,10.0,Calm,Calm,-,N/A,,Clear,0,2013-08-28 05:55:00